Time,TemperatureF,DewpointF,PressureIn,WindDirection,WindDirectionDegrees,WindSpeedMPH,WindSpeedGustMPH,Humidity,HourlyPrecipIn,Conditions,Clouds,dailyrainin,SoftwareType,DateUTC
2013-03-11 00:02:00,56.5,46.1,30.09,ESE,118,0.0,0.0,68,0.00,,,0.17,WeatherCatV1.10B1784,2013-03-11 07:02:00,
2013-03-11 00:07:00,55.7,46.1,30.09,ESE,118,2.0,3.0,70,0.00,,,0.17,WeatherCatV1.10B1784,2013-03-11 07:07:00,
2013-03-11 00:11:00,55.0,45.4,30.09,ESE,118,2.0,4.0,70,0.00,,,0.17,WeatherCatV1.10B1784,2013-03-11 07:11:00,
2013-03-11 00:16:00,56.2,47.7,30.09,ESE,118,2.0,3.0,73,0.00,,,0.17,WeatherCatV1.10B1784,2013-03-11 07:16:00,
2013-03-11 00:22:00,55.3,45.7,30.09,ESE,118,2.0,3.0,70,0.00,,,0.17,WeatherCatV1.10B1784,2013-03-11 07:22:00,
2013-03-11 00:27:00,54.5,45.7,30.09,ESE,118,0.0,3.0,72,0.00,,,0.17,WeatherCatV1.10B1784,2013-03-11 07:27:00,
2013-03-11 00:31:00,53.3,44.1,30.09,ESE,118,0.0,2.0,71,0.00,,,0.17,WeatherCatV1.10B1784,2013-03-11 07:31:00,
2013-03-11 00:37:00,53.6,44.4,30.09,ESE,118,0.0,1.0,71,0.00,,,0.17,WeatherCatV1.10B1784,2013-03-11 07:37:00,
2013-03-11 00:42:00,53.8,44.6,30.09,ESE,118,0.0,0.0,71,0.00,,,0.17,WeatherCatV1.10B1784,2013-03-11 07:42:00,
2013-03-11 00:46:00,53.5,44.3,30.08,ESE,118,0.0,0.0,71,0.00,,,0.17,WeatherCatV1.10B1784,2013-03-11 07:46:00,
2013-03-11 00:52:00,53.6,44.8,30.08,ESE,118,0.0,0.0,72,0.00,,,0.17,WeatherCatV1.10B1784,2013-03-11 07:52:00,
2013-03-11 00:57:00,53.1,43.9,30.08,ESE,118,0.0,1.0,71,0.00,,,0.17,WeatherCatV1.10B1784,2013-03-11 07:57:00,
2013-03-11 01:02:00,52.6,43.8,30.08,ESE,118,0.0,1.0,72,0.00,,,0.17,WeatherCatV1.10B1784,2013-03-11 08:02:00,
2013-03-11 01:07:00,52.3,43.5,30.08,ESE,118,2.0,2.0,72,0.00,,,0.17,WeatherCatV1.10B1784,2013-03-11 08:07:00,
2013-03-11 01:11:00,52.0,43.6,30.08,ESE,118,1.0,2.0,73,0.00,,,0.17,WeatherCatV1.10B1784,2013-03-11 08:11:00,
2013-03-11 01:16:00,51.9,43.5,30.08,ESE,118,2.0,3.0,73,0.00,,,0.17,WeatherCatV1.10B1784,2013-03-11 08:16:00,
2013-03-11 01:21:00,51.7,43.3,30.08,ESE,118,4.0,4.0,73,0.00,,,0.17,WeatherCatV1.10B1784,2013-03-11 08:21:00,
2013-03-11 01:26:00,51.9,43.5,30.08,ESE,118,3.0,3.0,73,0.00,,,0.17,WeatherCatV1.10B1784,2013-03-11 08:26:00,
2013-03-11 01:31:00,52.3,44.3,30.08,ESE,118,4.0,4.0,74,0.00,,,0.17,WeatherCatV1.10B1784,2013-03-11 08:31:00,
2013-03-11 01:36:00,52.6,44.2,30.08,ESE,118,2.0,3.0,73,0.00,,,0.17,WeatherCatV1.10B1784,2013-03-11 08:36:00,
2013-03-11 01:41:00,52.5,44.1,30.08,ESE,118,3.0,4.0,73,0.00,,,0.17,WeatherCatV1.10B1784,2013-03-11 08:41:00,
2013-03-11 01:46:00,52.6,43.8,30.09,ESE,118,3.0,3.0,72,0.00,,,0.17,WeatherCatV1.10B1784,2013-03-11 08:46:00,
2013-03-11 01:51:00,52.5,43.4,30.09,ESE,118,4.0,4.0,71,0.00,,,0.17,WeatherCatV1.10B1784,2013-03-11 08:51:00,
2013-03-11 01:56:00,52.2,43.1,30.09,ESE,118,4.0,4.0,71,0.00,,,0.17,WeatherCatV1.10B1784,2013-03-11 08:56:00,
2013-03-11 02:01:00,52.0,42.9,30.08,ESE,117,4.0,4.0,71,0.00,,,0.17,WeatherCatV1.10B1784,2013-03-11 09:01:00,
2013-03-11 02:06:00,52.0,42.9,30.08,ESE,116,3.0,4.0,71,0.00,,,0.17,WeatherCatV1.10B1784,2013-03-11 09:06:00,
2013-03-11 02:11:00,52.0,42.5,30.08,ESE,115,4.0,4.0,70,0.00,,,0.17,WeatherCatV1.10B1784,2013-03-11 09:11:00,
2013-03-11 02:16:00,52.0,42.5,30.08,ESE,115,4.0,4.0,70,0.00,,,0.17,WeatherCatV1.10B1784,2013-03-11 09:16:00,
2013-03-11 02:21:00,51.9,42.1,30.08,ESE,115,5.0,5.0,69,0.00,,,0.17,WeatherCatV1.10B1784,2013-03-11 09:21:00,
2013-03-11 02:26:00,51.6,41.8,30.08,ESE,113,4.0,5.0,69,0.00,,,0.17,WeatherCatV1.10B1784,2013-03-11 09:26:00,
2013-03-11 02:31:00,51.6,41.8,30.07,ESE,113,5.0,5.0,69,0.00,,,0.17,WeatherCatV1.10B1784,2013-03-11 09:31:00,
2013-03-11 02:36:00,51.6,41.8,30.07,ESE,111,5.0,5.0,69,0.00,,,0.17,WeatherCatV1.10B1784,2013-03-11 09:36:00,
2013-03-11 02:41:00,51.4,41.9,30.07,ESE,107,4.0,5.0,70,0.00,,,0.17,WeatherCatV1.10B1784,2013-03-11 09:41:00,
2013-03-11 02:46:00,51.6,42.1,30.07,ESE,107,3.0,4.0,70,0.00,,,0.17,WeatherCatV1.10B1784,2013-03-11 09:46:00,
2013-03-11 02:51:00,51.6,42.1,30.07,ESE,107,3.0,4.0,70,0.00,,,0.17,WeatherCatV1.10B1784,2013-03-11 09:51:00,
2013-03-11 02:56:00,51.7,42.6,30.07,ESE,107,3.0,3.0,71,0.00,,,0.17,WeatherCatV1.10B1784,2013-03-11 09:56:00,
2013-03-11 03:01:00,51.9,42.4,30.07,ESE,107,4.0,4.0,70,0.00,,,0.17,WeatherCatV1.10B1784,2013-03-11 10:01:00,
2013-03-11 03:06:00,51.7,42.6,30.07,ESE,107,4.0,4.0,71,0.00,,,0.17,WeatherCatV1.10B1784,2013-03-11 10:06:00,
2013-03-11 03:11:00,51.6,42.5,30.07,ESE,107,5.0,5.0,71,0.00,,,0.17,WeatherCatV1.10B1784,2013-03-11 10:11:00,
2013-03-11 03:16:00,51.3,42.6,30.06,ESE,107,4.0,5.0,72,0.00,,,0.17,WeatherCatV1.10B1784,2013-03-11 10:16:00,
2013-03-11 03:21:00,51.3,42.6,30.06,ESE,107,3.0,5.0,72,0.00,,,0.17,WeatherCatV1.10B1784,2013-03-11 10:21:00,
2013-03-11 03:26:00,51.3,42.9,30.06,ESE,107,4.0,4.0,73,0.00,,,0.17,WeatherCatV1.10B1784,2013-03-11 10:26:00,
2013-03-11 03:31:00,51.4,43.0,30.05,East,100,5.0,6.0,73,0.00,,,0.17,WeatherCatV1.10B1784,2013-03-11 10:31:00,
2013-03-11 03:36:00,51.6,43.2,30.05,East,96,6.0,6.0,73,0.00,,,0.17,WeatherCatV1.10B1784,2013-03-11 10:36:00,
2013-03-11 03:41:00,51.9,43.2,30.05,East,94,4.0,5.0,72,0.00,,,0.17,WeatherCatV1.10B1784,2013-03-11 10:41:00,
2013-03-11 03:46:00,52.0,43.3,30.05,East,94,4.0,4.0,72,0.00,,,0.17,WeatherCatV1.10B1784,2013-03-11 10:46:00,
2013-03-11 03:52:00,51.7,43.0,30.05,East,94,4.0,5.0,72,0.00,,,0.17,WeatherCatV1.10B1784,2013-03-11 10:52:00,
2013-03-11 03:56:00,51.9,43.5,30.05,East,94,4.0,5.0,73,0.00,,,0.17,WeatherCatV1.10B1784,2013-03-11 10:56:00,
2013-03-11 04:01:00,51.9,43.5,30.05,East,94,4.0,4.0,73,0.00,,,0.17,WeatherCatV1.10B1784,2013-03-11 11:01:00,
2013-03-11 04:07:00,51.6,43.2,30.05,East,94,5.0,5.0,73,0.00,,,0.17,WeatherCatV1.10B1784,2013-03-11 11:07:00,
2013-03-11 04:12:00,51.0,42.7,30.05,East,92,4.0,5.0,73,0.00,,,0.17,WeatherCatV1.10B1784,2013-03-11 11:12:00,
2013-03-11 04:17:00,50.7,42.4,30.04,East,92,4.0,5.0,73,0.00,,,0.17,WeatherCatV1.10B1784,2013-03-11 11:17:00,
2013-03-11 04:22:00,50.7,42.4,30.04,East,92,4.0,5.0,73,0.00,,,0.17,WeatherCatV1.10B1784,2013-03-11 11:22:00,
2013-03-11 04:27:00,50.7,42.4,30.04,East,92,4.0,5.0,73,0.00,,,0.17,WeatherCatV1.10B1784,2013-03-11 11:27:00,
2013-03-11 04:32:00,50.8,42.5,30.04,East,92,5.0,5.0,73,0.00,,,0.17,WeatherCatV1.10B1784,2013-03-11 11:32:00,
2013-03-11 04:37:00,50.7,42.4,30.04,East,92,4.0,5.0,73,0.00,,,0.17,WeatherCatV1.10B1784,2013-03-11 11:37:00,
2013-03-11 04:42:00,50.1,41.8,30.04,East,92,5.0,5.0,73,0.00,,,0.17,WeatherCatV1.10B1784,2013-03-11 11:42:00,
2013-03-11 04:47:00,49.6,41.7,30.04,East,92,4.0,5.0,74,0.00,,,0.17,WeatherCatV1.10B1784,2013-03-11 11:47:00,
2013-03-11 04:52:00,49.8,41.8,30.04,East,92,5.0,6.0,74,0.00,,,0.17,WeatherCatV1.10B1784,2013-03-11 11:52:00,
2013-03-11 04:57:00,49.8,41.8,30.04,East,85,4.0,5.0,74,0.00,,,0.17,WeatherCatV1.10B1784,2013-03-11 11:57:00,
2013-03-11 05:02:00,50.2,41.9,30.04,East,85,5.0,5.0,73,0.00,,,0.17,WeatherCatV1.10B1784,2013-03-11 12:02:00,
2013-03-11 05:07:00,50.5,41.8,30.04,East,84,5.0,6.0,72,0.00,,,0.17,WeatherCatV1.10B1784,2013-03-11 12:07:00,
2013-03-11 05:12:00,50.2,41.5,30.04,East,83,5.0,6.0,72,0.00,,,0.17,WeatherCatV1.10B1784,2013-03-11 12:12:00,
2013-03-11 05:17:00,49.8,41.1,30.05,ENE,76,6.0,6.0,72,0.00,,,0.17,WeatherCatV1.10B1784,2013-03-11 12:17:00,
2013-03-11 05:22:00,49.2,40.9,30.05,ENE,72,5.0,6.0,73,0.00,,,0.17,WeatherCatV1.10B1784,2013-03-11 12:22:00,
2013-03-11 05:27:00,49.2,40.9,30.05,ENE,71,6.0,6.0,73,0.00,,,0.17,WeatherCatV1.10B1784,2013-03-11 12:27:00,
2013-03-11 05:32:00,49.5,41.2,30.05,ENE,70,5.0,6.0,73,0.00,,,0.17,WeatherCatV1.10B1784,2013-03-11 12:32:00,
2013-03-11 05:37:00,49.6,40.9,30.05,ENE,67,7.0,7.0,72,0.00,,,0.17,WeatherCatV1.10B1784,2013-03-11 12:37:00,
2013-03-11 05:42:00,49.1,40.8,30.05,ENE,67,5.0,6.0,73,0.00,,,0.17,WeatherCatV1.10B1784,2013-03-11 12:42:00,
2013-03-11 05:47:00,49.1,40.8,30.04,ENE,67,6.0,7.0,73,0.00,,,0.17,WeatherCatV1.10B1784,2013-03-11 12:47:00,
2013-03-11 05:52:00,49.2,40.6,30.04,ENE,65,6.0,7.0,72,0.00,,,0.17,WeatherCatV1.10B1784,2013-03-11 12:52:00,
2013-03-11 05:57:00,49.6,40.9,30.04,ENE,66,6.0,7.0,72,0.00,,,0.17,WeatherCatV1.10B1784,2013-03-11 12:57:00,
2013-03-11 06:02:00,49.9,40.9,30.04,ENE,65,5.0,6.0,71,0.00,,,0.17,WeatherCatV1.10B1784,2013-03-11 13:02:00,
2013-03-11 06:07:00,50.4,41.0,30.04,ENE,66,5.0,6.0,70,0.00,,,0.17,WeatherCatV1.10B1784,2013-03-11 13:07:00,
2013-03-11 06:12:00,50.4,40.6,30.04,ENE,66,6.0,6.0,69,0.00,,,0.17,WeatherCatV1.10B1784,2013-03-11 13:12:00,
2013-03-11 06:17:00,50.2,40.4,30.04,ENE,65,5.0,6.0,69,0.00,,,0.17,WeatherCatV1.10B1784,2013-03-11 13:17:00,
2013-03-11 06:22:00,50.4,40.6,30.04,ENE,65,6.0,6.0,69,0.00,,,0.17,WeatherCatV1.10B1784,2013-03-11 13:22:00,
2013-03-11 06:27:00,50.2,40.4,30.04,ENE,65,0.0,0.0,69,0.00,,,0.17,WeatherCatV1.10B1784,2013-03-11 13:27:00,
2013-03-11 06:32:00,49.9,40.5,30.04,ENE,65,0.0,0.0,70,0.00,,,0.17,WeatherCatV1.10B1784,2013-03-11 13:32:00,
2013-03-11 06:37:00,49.8,40.4,30.04,ENE,65,0.0,0.0,70,0.00,,,0.17,WeatherCatV1.10B1784,2013-03-11 13:37:00,
2013-03-11 06:42:00,49.8,40.4,30.04,ENE,65,1.0,1.0,70,0.00,,,0.17,WeatherCatV1.10B1784,2013-03-11 13:42:00,
2013-03-11 06:47:00,50.1,40.7,30.04,ENE,65,0.0,1.0,70,0.00,,,0.17,WeatherCatV1.10B1784,2013-03-11 13:47:00,
2013-03-11 06:52:00,50.4,41.0,30.04,ENE,65,0.0,0.0,70,0.00,,,0.17,WeatherCatV1.10B1784,2013-03-11 13:52:00,
2013-03-11 06:57:00,50.1,40.3,30.04,ENE,65,1.0,2.0,69,0.00,,,0.17,WeatherCatV1.10B1784,2013-03-11 13:57:00,
2013-03-11 07:02:00,49.2,40.2,30.04,ENE,65,0.0,2.0,71,0.00,,,0.17,WeatherCatV1.10B1784,2013-03-11 14:02:00,
2013-03-11 07:07:00,48.8,40.2,30.04,ENE,65,0.0,2.0,72,0.00,,,0.17,WeatherCatV1.10B1784,2013-03-11 14:07:00,
2013-03-11 07:12:00,49.1,40.8,30.04,ENE,65,2.0,2.0,73,0.00,,,0.17,WeatherCatV1.10B1784,2013-03-11 14:12:00,
2013-03-11 07:17:00,49.4,40.8,30.04,ENE,65,2.0,3.0,72,0.00,,,0.17,WeatherCatV1.10B1784,2013-03-11 14:17:00,
2013-03-11 07:22:00,49.4,40.8,30.04,ENE,66,0.0,0.0,72,0.00,,,0.17,WeatherCatV1.10B1784,2013-03-11 14:22:00,
2013-03-11 07:27:00,49.8,40.8,30.04,ENE,66,0.0,0.0,71,0.00,,,0.17,WeatherCatV1.10B1784,2013-03-11 14:27:00,
2013-03-11 07:32:00,50.1,40.7,30.04,ENE,66,0.0,1.0,70,0.00,,,0.17,WeatherCatV1.10B1784,2013-03-11 14:32:00,
2013-03-11 07:37:00,50.4,40.6,30.04,ENE,65,2.0,3.0,69,0.00,,,0.17,WeatherCatV1.10B1784,2013-03-11 14:37:00,
2013-03-11 07:42:00,49.8,40.4,30.04,ENE,65,3.0,4.0,70,0.00,,,0.17,WeatherCatV1.10B1784,2013-03-11 14:42:00,
2013-03-11 07:47:00,49.8,40.4,30.05,ENE,65,2.0,3.0,70,0.00,,,0.17,WeatherCatV1.10B1784,2013-03-11 14:47:00,
2013-03-11 07:52:00,50.7,40.9,30.05,ENE,66,0.0,0.0,69,0.00,,,0.17,WeatherCatV1.10B1784,2013-03-11 14:52:00,
2013-03-11 07:57:00,51.0,41.2,30.05,ENE,65,0.0,3.0,69,0.00,,,0.17,WeatherCatV1.10B1784,2013-03-11 14:57:00,
2013-03-11 08:02:00,51.1,41.3,30.06,ENE,66,0.0,0.0,69,0.00,,,0.17,WeatherCatV1.10B1784,2013-03-11 15:02:00,
2013-03-11 08:07:00,51.6,41.8,30.06,ENE,66,3.0,3.0,69,0.00,,,0.17,WeatherCatV1.10B1784,2013-03-11 15:07:00,
2013-03-11 08:12:00,52.2,42.0,30.06,ENE,66,0.0,0.0,68,0.00,,,0.17,WeatherCatV1.10B1784,2013-03-11 15:12:00,
2013-03-11 08:17:00,52.9,42.6,30.06,ENE,66,0.0,1.0,68,0.00,,,0.17,WeatherCatV1.10B1784,2013-03-11 15:17:00,
2013-03-11 08:22:00,53.9,42.8,30.06,ENE,66,0.0,1.0,66,0.00,,,0.17,WeatherCatV1.10B1784,2013-03-11 15:22:00,
2013-03-11 08:27:00,54.7,43.2,30.06,ENE,65,0.0,2.0,65,0.00,,,0.17,WeatherCatV1.10B1784,2013-03-11 15:27:00,
2013-03-11 08:32:00,55.1,43.9,30.07,ENE,66,0.0,0.0,66,0.00,,,0.17,WeatherCatV1.10B1784,2013-03-11 15:32:00,
2013-03-11 08:37:00,56.0,44.4,30.07,ENE,66,0.0,0.0,65,0.00,,,0.17,WeatherCatV1.10B1784,2013-03-11 15:37:00,
2013-03-11 08:42:00,56.6,44.2,30.07,ENE,66,0.0,0.0,63,0.00,,,0.17,WeatherCatV1.10B1784,2013-03-11 15:42:00,
2013-03-11 08:47:00,56.6,43.7,30.07,ENE,66,0.0,0.0,62,0.00,,,0.17,WeatherCatV1.10B1784,2013-03-11 15:47:00,
2013-03-11 08:52:00,56.5,42.8,30.07,ENE,66,1.0,1.0,60,0.00,,,0.17,WeatherCatV1.10B1784,2013-03-11 15:52:00,
2013-03-11 08:57:00,56.6,44.6,30.07,ENE,65,0.0,1.0,64,0.00,,,0.17,WeatherCatV1.10B1784,2013-03-11 15:57:00,
2013-03-11 09:02:00,56.5,44.5,30.07,ENE,66,1.0,3.0,64,0.00,,,0.17,WeatherCatV1.10B1784,2013-03-11 16:02:00,
2013-03-11 09:07:00,56.2,45.0,30.07,ENE,66,3.0,3.0,66,0.00,,,0.17,WeatherCatV1.10B1784,2013-03-11 16:07:00,
2013-03-11 09:12:00,55.7,44.9,30.07,ENE,72,4.0,4.0,67,0.00,,,0.17,WeatherCatV1.10B1784,2013-03-11 16:12:00,
2013-03-11 09:17:00,55.4,44.6,30.07,East,82,5.0,5.0,67,0.00,,,0.17,WeatherCatV1.10B1784,2013-03-11 16:17:00,
2013-03-11 09:22:00,55.7,45.3,30.07,East,101,3.0,5.0,68,0.00,,,0.17,WeatherCatV1.10B1784,2013-03-11 16:22:00,
2013-03-11 09:27:00,55.7,44.5,30.07,East,101,3.0,4.0,66,0.00,,,0.17,WeatherCatV1.10B1784,2013-03-11 16:27:00,
2013-03-11 09:32:00,56.5,45.7,30.07,East,101,1.0,3.0,67,0.00,,,0.17,WeatherCatV1.10B1784,2013-03-11 16:32:00,
2013-03-11 09:37:00,56.2,44.6,30.07,ESE,103,4.0,5.0,65,0.00,,,0.17,WeatherCatV1.10B1784,2013-03-11 16:37:00,
2013-03-11 09:42:00,56.7,45.5,30.07,ESE,103,0.0,4.0,66,0.00,,,0.17,WeatherCatV1.10B1784,2013-03-11 16:42:00,
2013-03-11 09:47:00,56.7,46.6,30.07,ESE,113,6.0,6.0,69,0.00,,,0.17,WeatherCatV1.10B1784,2013-03-11 16:47:00,
2013-03-11 09:52:00,56.6,46.9,30.07,SE,132,5.0,6.0,70,0.00,,,0.17,WeatherCatV1.10B1784,2013-03-11 16:52:00,
2013-03-11 09:57:00,56.6,47.3,30.07,SE,133,3.0,5.0,71,0.00,,,0.17,WeatherCatV1.10B1784,2013-03-11 16:57:00,
2013-03-11 10:02:00,56.7,47.8,30.08,SE,135,4.0,5.0,72,0.00,,,0.17,WeatherCatV1.10B1784,2013-03-11 17:02:00,
2013-03-11 10:07:00,56.6,48.0,30.08,SSE,159,7.0,7.0,73,0.00,,,0.17,WeatherCatV1.10B1784,2013-03-11 17:07:00,
2013-03-11 10:12:00,56.5,47.9,30.08,SSE,168,5.0,5.0,73,0.00,,,0.17,WeatherCatV1.10B1784,2013-03-11 17:12:00,
2013-03-11 10:17:00,56.5,48.3,30.08,SSE,168,3.0,5.0,74,0.00,,,0.17,WeatherCatV1.10B1784,2013-03-11 17:17:00,
2013-03-11 10:22:00,56.6,48.4,30.08,SSE,168,3.0,6.0,74,0.00,,,0.17,WeatherCatV1.10B1784,2013-03-11 17:22:00,
2013-03-11 10:27:00,56.7,48.9,30.08,SSE,168,3.0,5.0,75,0.00,,,0.17,WeatherCatV1.10B1784,2013-03-11 17:27:00,
2013-03-11 10:32:00,57.0,49.5,30.08,SSE,168,4.0,5.0,76,0.00,,,0.17,WeatherCatV1.10B1784,2013-03-11 17:32:00,
2013-03-11 10:37:00,56.5,48.3,30.08,SSW,213,0.0,8.0,74,0.00,,,0.17,WeatherCatV1.10B1784,2013-03-11 17:37:00,
2013-03-11 10:42:00,56.5,48.3,30.08,SSW,213,5.0,6.0,74,0.00,,,0.17,WeatherCatV1.10B1784,2013-03-11 17:42:00,
2013-03-11 10:47:00,56.9,48.7,30.08,SSW,213,0.0,3.0,74,0.00,,,0.17,WeatherCatV1.10B1784,2013-03-11 17:47:00,
2013-03-11 10:52:00,57.5,48.9,30.08,SSW,213,0.0,3.0,73,0.00,,,0.17,WeatherCatV1.10B1784,2013-03-11 17:52:00,
2013-03-11 10:57:00,57.0,47.7,30.08,SSW,213,2.0,3.0,71,0.00,,,0.17,WeatherCatV1.10B1784,2013-03-11 17:57:00,
2013-03-11 11:02:00,56.7,47.0,30.07,SSW,213,0.0,2.0,70,0.00,,,0.17,WeatherCatV1.10B1784,2013-03-11 18:02:00,
2013-03-11 11:07:00,56.6,46.5,30.07,SSW,213,2.0,2.0,69,0.00,,,0.17,WeatherCatV1.10B1784,2013-03-11 18:07:00,
2013-03-11 11:12:00,56.7,47.0,30.07,SSW,213,1.0,3.0,70,0.00,,,0.17,WeatherCatV1.10B1784,2013-03-11 18:12:00,
2013-03-11 11:17:00,57.2,47.1,30.07,SSW,213,1.0,4.0,69,0.00,,,0.17,WeatherCatV1.10B1784,2013-03-11 18:17:00,
2013-03-11 11:22:00,57.3,46.0,30.07,SSW,213,1.0,2.0,66,0.00,,,0.17,WeatherCatV1.10B1784,2013-03-11 18:22:00,
2013-03-11 11:27:00,57.5,46.6,30.07,SSW,213,3.0,4.0,67,0.00,,,0.17,WeatherCatV1.10B1784,2013-03-11 18:27:00,
2013-03-11 11:32:00,58.0,47.1,30.07,SSW,213,0.0,3.0,67,0.00,,,0.17,WeatherCatV1.10B1784,2013-03-11 18:32:00,
2013-03-11 11:37:00,58.6,47.7,30.07,SSW,213,0.0,2.0,67,0.00,,,0.17,WeatherCatV1.10B1784,2013-03-11 18:37:00,
2013-03-11 11:42:00,59.9,50.8,30.07,SSW,213,0.0,4.0,72,0.00,,,0.17,WeatherCatV1.10B1784,2013-03-11 18:42:00,
2013-03-11 11:47:00,60.7,51.6,30.07,SW,221,2.0,3.0,72,0.00,,,0.17,WeatherCatV1.10B1784,2013-03-11 18:47:00,
2013-03-11 11:52:00,61.0,51.9,30.07,SW,234,3.0,6.0,72,0.00,,,0.17,WeatherCatV1.10B1784,2013-03-11 18:52:00,
2013-03-11 11:57:00,61.0,52.3,30.07,WSW,247,4.0,4.0,73,0.00,,,0.17,WeatherCatV1.10B1784,2013-03-11 18:57:00,
2013-03-11 12:02:00,61.0,51.9,30.07,WSW,256,4.0,7.0,72,0.00,,,0.17,WeatherCatV1.10B1784,2013-03-11 19:02:00,
2013-03-11 12:07:00,60.9,52.2,30.07,West,259,1.0,4.0,73,0.00,,,0.17,WeatherCatV1.10B1784,2013-03-11 19:07:00,
2013-03-11 12:12:00,61.3,52.6,30.07,West,259,5.0,5.0,73,0.00,,,0.17,WeatherCatV1.10B1784,2013-03-11 19:12:00,
2013-03-11 12:17:00,61.5,52.8,30.07,West,265,4.0,5.0,73,0.00,,,0.17,WeatherCatV1.10B1784,2013-03-11 19:17:00,
2013-03-11 12:22:00,61.2,52.5,30.07,West,271,3.0,7.0,73,0.00,,,0.17,WeatherCatV1.10B1784,2013-03-11 19:22:00,
2013-03-11 12:27:00,61.0,52.6,30.07,West,277,0.0,5.0,74,0.00,,,0.17,WeatherCatV1.10B1784,2013-03-11 19:27:00,
2013-03-11 12:32:00,60.7,52.4,30.07,WNW,284,7.0,7.0,74,0.00,,,0.17,WeatherCatV1.10B1784,2013-03-11 19:32:00,
2013-03-11 12:37:00,60.9,52.9,30.07,WNW,284,6.0,6.0,75,0.00,,,0.17,WeatherCatV1.10B1784,2013-03-11 19:37:00,
2013-03-11 12:42:00,60.4,52.4,30.07,WNW,284,4.0,6.0,75,0.00,,,0.17,WeatherCatV1.10B1784,2013-03-11 19:42:00,
2013-03-11 12:47:00,60.1,52.1,30.06,WNW,284,5.0,6.0,75,0.00,,,0.17,WeatherCatV1.10B1784,2013-03-11 19:47:00,
2013-03-11 12:52:00,60.4,52.4,30.06,WNW,284,5.0,7.0,75,0.00,,,0.17,WeatherCatV1.10B1784,2013-03-11 19:52:00,
2013-03-11 12:57:00,61.0,53.4,30.06,WNW,284,0.0,5.0,76,0.00,,,0.17,WeatherCatV1.10B1784,2013-03-11 19:57:00,
2013-03-11 13:02:00,61.6,53.6,30.05,WNW,284,3.0,4.0,75,0.00,,,0.17,WeatherCatV1.10B1784,2013-03-11 20:02:00,
2013-03-11 13:07:00,62.1,53.7,30.05,WNW,284,1.0,4.0,74,0.00,,,0.17,WeatherCatV1.10B1784,2013-03-11 20:07:00,
2013-03-11 13:12:00,62.4,53.6,30.05,WNW,284,0.0,4.0,73,0.00,,,0.17,WeatherCatV1.10B1784,2013-03-11 20:12:00,
2013-03-11 13:17:00,62.4,53.2,30.04,WNW,284,1.0,5.0,72,0.00,,,0.17,WeatherCatV1.10B1784,2013-03-11 20:17:00,
2013-03-11 13:22:00,62.7,53.9,30.04,WNW,284,0.0,4.0,73,0.00,,,0.17,WeatherCatV1.10B1784,2013-03-11 20:22:00,
2013-03-11 13:27:00,63.1,53.9,30.04,WNW,284,2.0,3.0,72,0.00,,,0.17,WeatherCatV1.10B1784,2013-03-11 20:27:00,
2013-03-11 13:32:00,63.4,54.2,30.03,WNW,284,0.0,3.0,72,0.00,,,0.17,WeatherCatV1.10B1784,2013-03-11 20:32:00,
2013-03-11 13:37:00,63.5,54.3,30.03,West,279,2.0,6.0,72,0.00,,,0.17,WeatherCatV1.10B1784,2013-03-11 20:37:00,
2013-03-11 13:42:00,63.5,54.7,30.03,WNW,283,0.0,6.0,73,0.00,,,0.17,WeatherCatV1.10B1784,2013-03-11 20:42:00,
2013-03-11 13:47:00,64.0,55.5,30.02,WNW,284,0.0,3.0,74,0.00,,,0.17,WeatherCatV1.10B1784,2013-03-11 20:47:00,
2013-03-11 13:52:00,64.2,55.7,30.02,WNW,284,2.0,4.0,74,0.00,,,0.17,WeatherCatV1.10B1784,2013-03-11 20:52:00,
2013-03-11 13:57:00,64.5,56.4,30.02,WNW,284,1.0,4.0,75,0.00,,,0.17,WeatherCatV1.10B1784,2013-03-11 20:57:00,
2013-03-11 14:02:00,64.3,55.8,30.01,WNW,284,1.0,4.0,74,0.00,,,0.17,WeatherCatV1.10B1784,2013-03-11 21:02:00,
2013-03-11 14:07:00,64.0,55.5,30.01,WNW,283,0.0,3.0,74,0.00,,,0.17,WeatherCatV1.10B1784,2013-03-11 21:07:00,
2013-03-11 14:12:00,64.3,55.8,30.01,WNW,283,4.0,5.0,74,0.00,,,0.17,WeatherCatV1.10B1784,2013-03-11 21:12:00,
2013-03-11 14:17:00,64.3,55.8,30.01,WNW,284,0.0,5.0,74,0.00,,,0.17,WeatherCatV1.10B1784,2013-03-11 21:17:00,
2013-03-11 14:22:00,64.5,56.4,30.01,WNW,284,0.0,4.0,75,0.00,,,0.17,WeatherCatV1.10B1784,2013-03-11 21:22:00,
2013-03-11 14:27:00,64.7,56.6,30.01,WNW,288,3.0,5.0,75,0.00,,,0.17,WeatherCatV1.10B1784,2013-03-11 21:27:00,
2013-03-11 14:32:00,64.2,56.1,30.01,WNW,293,5.0,7.0,75,0.00,,,0.17,WeatherCatV1.10B1784,2013-03-11 21:32:00,
2013-03-11 14:37:00,64.0,56.3,30.01,WNW,293,0.0,4.0,76,0.00,,,0.17,WeatherCatV1.10B1784,2013-03-11 21:37:00,
2013-03-11 14:42:00,64.2,56.5,30.01,WNW,293,2.0,6.0,76,0.00,,,0.17,WeatherCatV1.10B1784,2013-03-11 21:42:00,
2013-03-11 14:47:00,63.9,56.2,30.01,WNW,293,5.0,6.0,76,0.00,,,0.17,WeatherCatV1.10B1784,2013-03-11 21:47:00,
2013-03-11 14:52:00,64.2,56.8,30.01,WNW,293,3.0,6.0,77,0.00,,,0.17,WeatherCatV1.10B1784,2013-03-11 21:52:00,
2013-03-11 14:57:00,63.5,55.8,30.01,WNW,294,5.0,6.0,76,0.00,,,0.17,WeatherCatV1.10B1784,2013-03-11 21:57:00,
2013-03-11 15:02:00,63.2,55.9,30.01,WNW,293,2.0,3.0,77,0.00,,,0.17,WeatherCatV1.10B1784,2013-03-11 22:02:00,
2013-03-11 15:07:00,63.9,56.5,30.01,WNW,292,4.0,5.0,77,0.00,,,0.17,WeatherCatV1.10B1784,2013-03-11 22:07:00,
2013-03-11 15:12:00,64.0,56.3,30.01,WNW,285,0.0,5.0,76,0.00,,,0.17,WeatherCatV1.10B1784,2013-03-11 22:12:00,
2013-03-11 15:17:00,64.2,56.5,30.00,WNW,287,2.0,5.0,76,0.00,,,0.17,WeatherCatV1.10B1784,2013-03-11 22:17:00,
2013-03-11 15:22:00,64.3,56.9,30.00,West,281,2.0,5.0,77,0.00,,,0.17,WeatherCatV1.10B1784,2013-03-11 22:22:00,
2013-03-11 15:27:00,64.3,56.6,30.00,WNW,292,5.0,8.0,76,0.00,,,0.17,WeatherCatV1.10B1784,2013-03-11 22:27:00,
2013-03-11 15:32:00,64.5,56.8,30.01,WNW,290,4.0,4.0,76,0.00,,,0.17,WeatherCatV1.10B1784,2013-03-11 22:32:00,
2013-03-11 15:37:00,64.5,56.8,30.01,WNW,284,2.0,4.0,76,0.00,,,0.17,WeatherCatV1.10B1784,2013-03-11 22:37:00,
2013-03-11 15:42:00,64.7,57.3,30.01,WNW,287,2.0,4.0,77,0.00,,,0.17,WeatherCatV1.10B1784,2013-03-11 22:42:00,
2013-03-11 15:47:00,64.5,56.8,30.00,WNW,288,3.0,5.0,76,0.00,,,0.17,WeatherCatV1.10B1784,2013-03-11 22:47:00,
2013-03-11 15:52:00,64.0,55.9,30.00,WNW,293,3.0,5.0,75,0.00,,,0.17,WeatherCatV1.10B1784,2013-03-11 22:52:00,
2013-03-11 15:57:00,64.2,56.5,30.00,WNW,294,2.0,5.0,76,0.00,,,0.17,WeatherCatV1.10B1784,2013-03-11 22:57:00,
2013-03-11 16:02:00,64.2,56.5,29.99,WNW,300,0.0,6.0,76,0.00,,,0.17,WeatherCatV1.10B1784,2013-03-11 23:02:00,
2013-03-11 16:07:00,63.9,56.2,29.99,WNW,294,4.0,7.0,76,0.00,,,0.17,WeatherCatV1.10B1784,2013-03-11 23:07:00,
2013-03-11 16:12:00,62.3,54.3,29.99,WNW,298,6.0,6.0,75,0.00,,,0.17,WeatherCatV1.10B1784,2013-03-11 23:12:00,
2013-03-11 16:17:00,61.6,54.3,29.99,WNW,296,1.0,7.0,77,0.00,,,0.18,WeatherCatV1.10B1784,2013-03-11 23:17:00,
2013-03-11 16:22:00,61.8,54.5,29.99,WNW,290,3.0,6.0,77,0.00,,,0.18,WeatherCatV1.10B1784,2013-03-11 23:22:00,
2013-03-11 16:27:00,62.1,54.8,29.99,WNW,292,5.0,6.0,77,0.00,,,0.18,WeatherCatV1.10B1784,2013-03-11 23:27:00,
2013-03-11 16:32:00,61.3,54.4,29.99,WNW,294,4.0,6.0,78,0.00,,,0.18,WeatherCatV1.10B1784,2013-03-11 23:32:00,
2013-03-11 16:37:00,61.3,54.4,29.99,WNW,294,3.0,5.0,78,0.00,,,0.18,WeatherCatV1.10B1784,2013-03-11 23:37:00,
2013-03-11 16:42:00,61.6,54.7,29.99,WNW,294,4.0,4.0,78,0.00,,,0.18,WeatherCatV1.10B1784,2013-03-11 23:42:00,
2013-03-11 16:47:00,61.6,54.7,29.98,WNW,294,2.0,4.0,78,0.00,,,0.18,WeatherCatV1.10B1784,2013-03-11 23:47:00,
2013-03-11 16:52:00,61.6,54.7,29.98,WNW,292,3.0,6.0,78,0.00,,,0.18,WeatherCatV1.10B1784,2013-03-11 23:52:00,
2013-03-11 16:57:00,62.0,55.1,29.98,WNW,292,0.0,4.0,78,0.00,,,0.18,WeatherCatV1.10B1784,2013-03-11 23:57:00,
2013-03-11 17:02:00,62.4,55.4,29.98,WNW,290,7.0,7.0,78,0.00,,,0.18,WeatherCatV1.10B1784,2013-03-12 00:02:00,
2013-03-11 17:07:00,62.0,55.1,29.98,WNW,289,0.0,5.0,78,0.00,,,0.18,WeatherCatV1.10B1784,2013-03-12 00:07:00,
2013-03-11 17:12:00,62.1,55.2,29.98,WNW,288,3.0,7.0,78,0.00,,,0.18,WeatherCatV1.10B1784,2013-03-12 00:12:00,
2013-03-11 17:17:00,61.8,55.2,29.97,WNW,286,0.0,3.0,79,0.00,,,0.18,WeatherCatV1.10B1784,2013-03-12 00:17:00,
2013-03-11 17:22:00,62.0,54.7,29.97,WNW,284,1.0,7.0,77,0.00,,,0.18,WeatherCatV1.10B1784,2013-03-12 00:22:00,
2013-03-11 17:27:00,61.8,54.9,29.97,WNW,284,2.0,5.0,78,0.00,,,0.18,WeatherCatV1.10B1784,2013-03-12 00:27:00,
2013-03-11 17:32:00,61.5,54.6,29.97,WNW,284,2.0,4.0,78,0.00,,,0.18,WeatherCatV1.10B1784,2013-03-12 00:32:00,
2013-03-11 17:37:00,61.0,54.1,29.97,WNW,284,1.0,5.0,78,0.00,,,0.18,WeatherCatV1.10B1784,2013-03-12 00:37:00,
2013-03-11 17:42:00,60.4,53.9,29.97,WNW,286,1.0,5.0,79,0.00,,,0.18,WeatherCatV1.10B1784,2013-03-12 00:42:00,
2013-03-11 17:47:00,59.9,53.7,29.97,WNW,294,6.0,7.0,80,0.00,,,0.18,WeatherCatV1.10B1784,2013-03-12 00:47:00,
2013-03-11 17:52:00,59.3,53.1,29.97,WNW,302,6.0,7.0,80,0.00,,,0.18,WeatherCatV1.10B1784,2013-03-12 00:52:00,
2013-03-11 17:57:00,58.3,52.5,29.97,NW,304,6.0,7.0,81,0.00,,,0.18,WeatherCatV1.10B1784,2013-03-12 00:57:00,
2013-03-11 18:02:00,57.3,52.2,29.98,WNW,303,3.0,7.0,83,0.00,,,0.18,WeatherCatV1.10B1784,2013-03-12 01:02:00,
2013-03-11 18:07:00,56.9,51.8,29.98,NW,307,4.0,8.0,83,0.00,,,0.18,WeatherCatV1.10B1784,2013-03-12 01:07:00,
2013-03-11 18:12:00,56.2,51.4,29.98,NW,309,5.0,9.0,84,0.00,,,0.18,WeatherCatV1.10B1784,2013-03-12 01:12:00,
2013-03-11 18:17:00,55.7,51.3,29.98,NW,309,3.0,6.0,85,0.00,,,0.18,WeatherCatV1.10B1784,2013-03-12 01:17:00,
2013-03-11 18:22:00,55.4,51.3,29.98,NW,309,3.0,4.0,86,0.00,,,0.18,WeatherCatV1.10B1784,2013-03-12 01:22:00,
2013-03-11 18:27:00,55.3,51.2,29.98,NW,309,5.0,7.0,86,0.00,,,0.18,WeatherCatV1.10B1784,2013-03-12 01:27:00,
2013-03-11 18:32:00,55.3,51.5,29.98,NW,309,3.0,7.0,87,0.00,,,0.18,WeatherCatV1.10B1784,2013-03-12 01:32:00,
2013-03-11 18:37:00,55.1,51.6,29.98,NW,309,4.0,4.0,88,0.00,,,0.18,WeatherCatV1.10B1784,2013-03-12 01:37:00,
2013-03-11 18:42:00,55.3,51.8,29.98,NW,309,3.0,4.0,88,0.00,,,0.18,WeatherCatV1.10B1784,2013-03-12 01:42:00,
2013-03-11 18:47:00,55.4,51.9,29.98,NW,309,0.0,0.0,88,0.00,,,0.18,WeatherCatV1.10B1784,2013-03-12 01:47:00,
2013-03-11 18:52:00,55.3,51.8,29.98,NW,309,0.0,0.0,88,0.00,,,0.18,WeatherCatV1.10B1784,2013-03-12 01:52:00,
2013-03-11 18:57:00,55.1,51.6,29.98,NW,309,0.0,0.0,88,0.00,,,0.18,WeatherCatV1.10B1784,2013-03-12 01:57:00,
2013-03-11 19:02:00,55.1,51.6,29.97,NW,309,3.0,4.0,88,0.00,,,0.18,WeatherCatV1.10B1784,2013-03-12 02:02:00,
2013-03-11 19:07:00,55.1,51.6,29.97,NW,309,0.0,0.0,88,0.00,,,0.18,WeatherCatV1.10B1784,2013-03-12 02:07:00,
2013-03-11 19:12:00,55.3,52.1,29.97,NW,309,0.0,0.0,89,0.00,,,0.18,WeatherCatV1.10B1784,2013-03-12 02:12:00,
2013-03-11 19:17:00,55.4,52.2,29.98,NW,309,3.0,5.0,89,0.00,,,0.18,WeatherCatV1.10B1784,2013-03-12 02:17:00,
2013-03-11 19:22:00,55.4,52.2,29.98,NW,309,2.0,4.0,89,0.00,,,0.18,WeatherCatV1.10B1784,2013-03-12 02:22:00,
2013-03-11 19:27:00,55.1,51.9,29.98,NW,309,2.0,3.0,89,0.00,,,0.18,WeatherCatV1.10B1784,2013-03-12 02:27:00,
2013-03-11 19:32:00,55.1,51.9,29.98,NW,309,0.0,1.0,89,0.00,,,0.18,WeatherCatV1.10B1784,2013-03-12 02:32:00,
2013-03-11 19:37:00,55.1,51.9,29.98,NW,309,0.0,0.0,89,0.00,,,0.18,WeatherCatV1.10B1784,2013-03-12 02:37:00,
2013-03-11 19:42:00,55.0,51.8,29.98,NW,309,0.0,0.0,89,0.00,,,0.18,WeatherCatV1.10B1784,2013-03-12 02:42:00,
2013-03-11 19:47:00,54.7,51.5,29.98,NW,309,0.0,0.0,89,0.00,,,0.18,WeatherCatV1.10B1784,2013-03-12 02:47:00,
2013-03-11 19:52:00,54.5,51.3,29.98,NW,309,0.0,0.0,89,0.00,,,0.18,WeatherCatV1.10B1784,2013-03-12 02:52:00,
2013-03-11 19:57:00,54.5,51.3,29.98,NW,309,0.0,0.0,89,0.00,,,0.18,WeatherCatV1.10B1784,2013-03-12 02:57:00,
2013-03-11 20:02:00,54.5,51.6,29.98,NW,309,0.0,0.0,90,0.00,,,0.18,WeatherCatV1.10B1784,2013-03-12 03:02:00,
2013-03-11 20:07:00,54.5,51.3,29.98,NW,309,0.0,0.0,89,0.00,,,0.18,WeatherCatV1.10B1784,2013-03-12 03:07:00,
2013-03-11 20:12:00,54.5,51.6,29.98,NW,309,0.0,1.0,90,0.00,,,0.18,WeatherCatV1.10B1784,2013-03-12 03:12:00,
2013-03-11 20:17:00,54.5,51.6,29.99,NW,309,0.0,0.0,90,0.00,,,0.18,WeatherCatV1.10B1784,2013-03-12 03:17:00,
2013-03-11 20:22:00,54.5,51.6,29.99,NW,309,0.0,0.0,90,0.00,,,0.18,WeatherCatV1.10B1784,2013-03-12 03:22:00,
2013-03-11 20:27:00,54.7,51.8,29.99,NW,309,0.0,2.0,90,0.00,,,0.18,WeatherCatV1.10B1784,2013-03-12 03:27:00,
2013-03-11 20:32:00,54.7,51.8,29.99,NW,309,0.0,0.0,90,0.00,,,0.18,WeatherCatV1.10B1784,2013-03-12 03:32:00,
2013-03-11 20:37:00,54.5,51.6,29.99,NW,309,0.0,0.0,90,0.00,,,0.18,WeatherCatV1.10B1784,2013-03-12 03:37:00,
2013-03-11 20:42:00,54.4,51.5,29.99,NW,309,0.0,0.0,90,0.00,,,0.18,WeatherCatV1.10B1784,2013-03-12 03:42:00,
2013-03-11 20:47:00,54.2,51.3,29.99,NW,309,0.0,0.0,90,0.00,,,0.18,WeatherCatV1.10B1784,2013-03-12 03:47:00,
2013-03-11 20:52:00,54.2,51.3,29.99,NW,309,0.0,0.0,90,0.00,,,0.18,WeatherCatV1.10B1784,2013-03-12 03:52:00,
2013-03-11 20:57:00,54.1,51.2,29.99,NW,309,0.0,0.0,90,0.00,,,0.18,WeatherCatV1.10B1784,2013-03-12 03:57:00,
2013-03-11 21:00:00,54.1,51.2,29.99,NW,309,0.0,0.0,90,0.00,,,0.18,WeatherCatV1.10B1784,2013-03-12 04:00:00,
2013-03-11 21:05:00,53.9,51.0,29.99,NW,309,0.0,0.0,90,0.00,,,0.18,WeatherCatV1.10B1784,2013-03-12 04:05:00,
2013-03-11 21:10:00,53.9,51.3,29.99,NW,309,0.0,0.0,91,0.00,,,0.18,WeatherCatV1.10B1784,2013-03-12 04:10:00,
2013-03-11 21:15:00,53.9,51.3,29.99,NW,309,0.0,0.0,91,0.00,,,0.18,WeatherCatV1.10B1784,2013-03-12 04:15:00,
2013-03-11 21:16:00,53.8,50.9,29.99,NW,309,0.0,0.0,90,0.00,,,0.18,WeatherCatV1.10B1784,2013-03-12 04:16:00,
2013-03-11 21:21:00,53.6,51.0,29.99,NW,309,0.0,0.0,91,0.00,,,0.18,WeatherCatV1.10B1784,2013-03-12 04:21:00,
2013-03-11 21:26:00,53.5,50.9,29.99,NW,309,0.0,0.0,91,0.00,,,0.18,WeatherCatV1.10B1784,2013-03-12 04:26:00,
2013-03-11 21:31:00,53.5,50.9,30.00,NW,309,0.0,0.0,91,0.00,,,0.18,WeatherCatV1.10B1784,2013-03-12 04:31:00,
2013-03-11 21:36:00,53.3,50.7,30.00,NW,309,0.0,0.0,91,0.00,,,0.18,WeatherCatV1.10B1784,2013-03-12 04:36:00,
2013-03-11 21:41:00,53.2,50.6,30.00,NW,309,0.0,0.0,91,0.00,,,0.18,WeatherCatV1.10B1784,2013-03-12 04:41:00,
2013-03-11 21:46:00,53.1,50.5,30.01,NW,309,0.0,0.0,91,0.00,,,0.18,WeatherCatV1.10B1784,2013-03-12 04:46:00,
2013-03-11 21:51:00,52.9,50.3,30.01,NW,309,0.0,0.0,91,0.00,,,0.18,WeatherCatV1.10B1784,2013-03-12 04:51:00,
2013-03-11 21:56:00,52.9,50.3,30.01,NW,309,0.0,0.0,91,0.00,,,0.18,WeatherCatV1.10B1784,2013-03-12 04:56:00,
2013-03-11 22:01:00,52.8,50.2,30.01,NW,309,0.0,0.0,91,0.00,,,0.18,WeatherCatV1.10B1784,2013-03-12 05:01:00,
2013-03-11 22:06:00,52.8,50.2,30.01,NW,309,0.0,0.0,91,0.00,,,0.18,WeatherCatV1.10B1784,2013-03-12 05:06:00,
2013-03-11 22:11:00,52.8,50.2,30.01,NW,309,0.0,0.0,91,0.00,,,0.18,WeatherCatV1.10B1784,2013-03-12 05:11:00,
2013-03-11 22:16:00,52.6,50.0,30.01,NW,309,0.0,2.0,91,0.00,,,0.18,WeatherCatV1.10B1784,2013-03-12 05:16:00,
2013-03-11 22:21:00,52.5,49.9,30.01,NW,309,0.0,0.0,91,0.00,,,0.18,WeatherCatV1.10B1784,2013-03-12 05:21:00,
2013-03-11 22:26:00,52.5,50.2,30.01,NW,309,0.0,0.0,92,0.00,,,0.18,WeatherCatV1.10B1784,2013-03-12 05:26:00,
2013-03-11 22:31:00,52.5,50.2,30.01,NW,309,0.0,0.0,92,0.00,,,0.18,WeatherCatV1.10B1784,2013-03-12 05:31:00,
2013-03-11 22:36:00,52.3,50.0,30.01,NW,309,0.0,0.0,92,0.00,,,0.18,WeatherCatV1.10B1784,2013-03-12 05:36:00,
2013-03-11 22:41:00,52.3,50.0,30.01,NW,309,0.0,2.0,92,0.00,,,0.18,WeatherCatV1.10B1784,2013-03-12 05:41:00,
2013-03-11 22:46:00,52.2,49.9,30.01,NW,309,0.0,0.0,92,0.00,,,0.18,WeatherCatV1.10B1784,2013-03-12 05:46:00,
2013-03-11 22:51:00,52.2,49.9,30.01,NW,309,0.0,0.0,92,0.00,,,0.18,WeatherCatV1.10B1784,2013-03-12 05:51:00,
2013-03-11 22:56:00,52.0,49.7,30.01,NW,309,0.0,1.0,92,0.00,,,0.18,WeatherCatV1.10B1784,2013-03-12 05:56:00,
2013-03-11 23:01:00,51.9,49.6,30.01,NW,309,0.0,0.0,92,0.00,,,0.18,WeatherCatV1.10B1784,2013-03-12 06:01:00,
2013-03-11 23:06:00,51.9,49.6,30.01,NW,309,0.0,1.0,92,0.00,,,0.18,WeatherCatV1.10B1784,2013-03-12 06:06:00,
2013-03-11 23:11:00,52.0,49.7,30.01,NW,309,0.0,0.0,92,0.00,,,0.18,WeatherCatV1.10B1784,2013-03-12 06:11:00,
2013-03-11 23:16:00,52.0,49.7,30.01,NW,309,0.0,0.0,92,0.00,,,0.18,WeatherCatV1.10B1784,2013-03-12 06:16:00,
2013-03-11 23:21:00,52.0,49.7,30.01,NW,309,0.0,1.0,92,0.00,,,0.18,WeatherCatV1.10B1784,2013-03-12 06:21:00,
2013-03-11 23:26:00,52.2,49.9,30.01,NW,309,0.0,0.0,92,0.00,,,0.18,WeatherCatV1.10B1784,2013-03-12 06:26:00,
2013-03-11 23:31:00,52.2,49.9,30.00,NW,309,0.0,2.0,92,0.00,,,0.18,WeatherCatV1.10B1784,2013-03-12 06:31:00,
2013-03-11 23:36:00,52.3,50.0,30.00,NW,309,0.0,1.0,92,0.00,,,0.18,WeatherCatV1.10B1784,2013-03-12 06:36:00,
2013-03-11 23:41:00,52.3,50.0,30.00,NW,309,0.0,1.0,92,0.00,,,0.18,WeatherCatV1.10B1784,2013-03-12 06:41:00,
2013-03-11 23:46:00,52.3,50.0,30.00,NW,309,0.0,1.0,92,0.00,,,0.18,WeatherCatV1.10B1784,2013-03-12 06:46:00,
2013-03-11 23:51:00,52.5,50.5,30.00,NW,309,0.0,0.0,93,0.00,,,0.18,WeatherCatV1.10B1784,2013-03-12 06:51:00,
2013-03-11 23:56:00,52.5,50.5,30.00,NW,309,0.0,0.0,93,0.00,,,0.18,WeatherCatV1.10B1784,2013-03-12 06:56:00,